This demonstration page uses our WeatherBlox Daily Observations layout. Learn more.

Left ArrowRight Arrow

39.51506, -84.39828

Hourly Observations for June 15, 2017

Temp ( °F °C ) Dew Point ( °F °C ) Humidity (%) Winds ( mph kmh ) Pressure ( in mb ) Visibility ( mi km ) Precip ( " mm )
12:15 am 00:15 Cloudy 70 21 65 18.6 86 86 Calm 29.97 1015 7 11 0.00 0.00
12:35 am 00:35 Mostly Cloudy 69 20.8 65 18.3 86 86 SW 6 9 29.97 1015 10 16 0.00 0.00
12:55 am 00:55 Mostly Cloudy 71 21.8 67 19.3 86 86 S 6 9 29.94 1014 10 16 0.00 0.00
1:15 am 01:15 Mostly Cloudy 72 22.3 67 19.7 85 85 WSW 3 6 29.94 1014 10 16 0.00 0.00
1:35 am 01:35 Partly Cloudy with Drizzle 72 22 67 19.4 85 85 Calm 29.94 1014 10 16 0.00 0.00
1:55 am 01:55 Clear 69 20.8 65 18.2 85 85 Calm 29.94 1014 10 16 0.00 0.00
2:15 am 02:15 Clear 69 20.8 65 18.3 86 86 WSW 3 6 29.94 1014 7 11 0.00 0.00
2:35 am 02:35 Partly Cloudy 69 20.8 65 18.5 87 87 Calm 29.91 1013 7 11 0.00 0.00
2:55 am 02:55 Hazy 69 20.8 65 18.5 87 87 Calm 29.91 1013 5 8 0.00 0.00
3:15 am 03:15 Partly Cloudy with Light Rain 69 20.8 65 18.5 87 87 SSW 3 6 29.91 1013 7 11 0.00 0.00
3:35 am 03:35 Partly Cloudy with Light Rain 69 20.8 65 18.5 87 87 SSW 3 6 29.88 1012 7 11 0.00 0.00
3:55 am 03:55 Hazy 69 20.8 65 18.5 87 87 SW 5 7 29.91 1013 5 8 0.00 0.00
4:15 am 04:15 Partly Cloudy with Light Rain 69 20.8 65 18.3 86 86 SW 6 9 29.91 1013 10 16 0.00 0.00
4:35 am 04:35 Partly Cloudy 69 20.8 65 18.2 85 85 WSW 6 9 29.91 1013 10 16 0.00 0.00
4:55 am 04:55 Partly Cloudy with Light Rain 69 20.8 65 18.1 85 85 SSW 12 19 29.91 1013 10 16 0.00 0.00
5:15 am 05:15 Cloudy with Light Rain 69 20.8 65 18.1 85 85 SSW 8 13 29.91 1013 10 16 0.00 0.00
5:35 am 05:35 Mostly Cloudy with Light Rain 69 20.8 65 18.1 85 85 SSW 7 11 29.91 1013 10 16 0.00 0.00
5:55 am 05:55 Cloudy with Rain 69 20.8 65 18.2 85 85 S 5 7 29.88 1012 7 11 0.00 0.00
6:15 am 06:15 Cloudy with Light Rain 69 20.8 65 18.2 85 85 SSW 5 7 29.88 1012 10 16 0.00 0.00
6:35 am 06:35 Cloudy with Light Rain 69 20.8 65 18.2 85 85 S 6 9 29.85 1011 10 16 0.00 0.00
6:55 am 06:55 Partly Cloudy with Light Rain 69 20.8 65 18.2 85 85 S 7 11 29.85 1011 10 16 0.00 0.00
7:15 am 07:15 Sunny 69 20.8 65 18.2 85 85 S 6 9 29.85 1011 10 16 0.00 0.00
7:35 am 07:35 Sunny 69 20.8 65 18.2 85 85 SSW 5 7 29.85 1011 10 16 0.00 0.00
7:55 am 07:55 Sunny 69 20.8 65 18.1 85 85 S 3 6 29.85 1011 10 16 0.00 0.00
8:15 am 08:15 Sunny 73 22.7 67 19.7 83 83 S 7 11 29.85 1011 10 16 0.00 0.00
8:35 am 08:35 Sunny 74 23.5 69 20.6 84 84 SW 5 7 29.85 1011 10 16 0.00 0.00
8:55 am 08:55 Sunny 74 23.6 69 20.5 83 83 WSW 3 6 29.88 1012 10 16 0.00 0.00
9:15 am 09:15 Sunny 74 23.6 68 19.8 79 79 SW 8 13 29.88 1012 10 16 0.00 0.00
9:35 am 09:35 Sunny 74 23.6 67 19.7 79 79 W 7 11 29.88 1012 10 16 0.00 0.00
9:55 am 09:55 Partly Cloudy 77 24.9 69 20.5 77 77 WSW 9 15 29.91 1013 10 16 0.00 0.00
10:15 am 10:15 Mostly Cloudy 75 24.1 68 20 78 78 W 8 13 29.91 1013 10 16 0.00 0.00
10:35 am 10:35 Cloudy 77 25 69 20.6 77 77 W 12 19 29.91 1013 10 16 0.00 0.00
10:55 am 10:55 Cloudy 76 24.5 68 20 76 76 W 12 19 29.91 1013 10 16 0.00 0.00
11:15 am 11:15 Cloudy 74 23.6 67 19.2 76 76 WSW 8 13 29.91 1013 10 16 0.00 0.00
11:35 am 11:35 Cloudy 75 23.8 66 19 75 75 W 9 15 29.91 1013 10 16 0.00 0.00
11:55 am 11:55 Cloudy 77 25.1 68 20 73 73 W 9 15 29.91 1013 10 16 0.00 0.00
12:15 pm 12:15 Cloudy 77 25.1 67 19.7 72 72 WSW 7 11 29.91 1013 10 16 0.00 0.00
12:35 pm 12:35 Cloudy 77 25.1 67 19.3 70 70 W 6 9 29.91 1013 10 16 0.00 0.00
12:55 pm 12:55 Cloudy 77 25.1 67 19.4 71 71 WSW 8 13 29.88 1012 10 16 0.00 0.00
1:15 pm 13:15 Mostly Cloudy 80 26.5 69 20.4 69 69 WSW 6 9 29.88 1012 10 16 0.00 0.00
1:35 pm 13:35 Partly Cloudy 80 26.5 67 19.4 65 65 SSE 3 6 29.88 1012 10 16 0.00 0.00
1:55 pm 13:55 Mostly Cloudy 80 26.5 66 18.8 63 63 Calm 29.88 1012 10 16 0.00 0.00
2:15 pm 14:15 Mostly Cloudy 80 26.5 67 19.7 66 66 WSW 5 7 29.88 1012 10 16 0.00 0.00
2:35 pm 14:35 Mostly Cloudy 81 27.2 67 19.3 62 62 W 7 11 29.85 1011 10 16 0.00 0.00
2:55 pm 14:55 Mostly Cloudy 80 26.6 66 18.8 62 62 WSW 8 13 29.88 1012 10 16 0.00 0.00
3:15 pm 15:15 Mostly Cloudy 81 27.2 67 19.3 62 62 W 7 11 29.85 1011 10 16 0.00 0.00
3:35 pm 15:35 Partly Cloudy 82 27.8 67 19.5 61 61 WSW 6 9 29.85 1011 10 16 0.00 0.00
3:55 pm 15:55 Sunny 82 28 68 19.8 61 61 WNW 7 11 29.85 1011 10 16 0.00 0.00
4:15 pm 16:15 Sunny 82 28 67 19.2 59 59 W 5 7 29.85 1011 10 16 0.00 0.00
4:35 pm 16:35 Sunny 82 28 66 19.1 58 58 Calm 29.83 1010 10 16 0.00 0.00
4:55 pm 16:55 Sunny 82 28 65 18.5 56 56 WSW 6 9 29.83 1010 10 16 0.00 0.00
5:15 pm 17:15 Partly Cloudy 82 28 65 18.5 56 56 WSW 3 6 29.83 1010 10 16 0.00 0.00
5:35 pm 17:35 Partly Cloudy 81 27.3 63 17.4 55 55 WSW 6 9 29.83 1010 10 16 0.00 0.00
5:55 pm 17:55 Sunny 81 27.2 64 17.6 56 56 W 5 7 29.83 1010 10 16 0.00 0.00
6:15 pm 18:15 Sunny 80 26.8 66 18.8 62 62 W 3 6 29.80 1009 10 16 0.00 0.00
6:35 pm 18:35 Sunny 80 26.5 66 19 63 63 Calm 29.80 1009 10 16 0.00 0.00
6:55 pm 18:55 Sunny 80 26.5 66 19 63 63 W 5 7 29.85 1011 10 16 0.00 0.00
7:15 pm 19:15 Sunny 80 26.5 65 18.6 62 62 W 3 6 29.85 1011 10 16 0.00 0.00
7:35 pm 19:35 Sunny 80 26.5 66 19.1 64 64 W 5 7 29.85 1011 10 16 0.00 0.00
7:55 pm 19:55 Sunny 77 25.1 67 19.3 70 70 W 3 6 29.85 1011 10 16 0.00 0.00
8:15 pm 20:15 Sunny 77 25.1 67 19.4 71 71 W 3 6 29.85 1011 10 16 0.00 0.00
8:35 pm 20:35 Sunny 77 25.1 68 19.8 73 73 W 3 6 29.85 1011 10 16 0.00 0.00
8:55 pm 20:55 Sunny 77 25.1 68 20.2 74 74 Calm 29.85 1011 10 16 0.00 0.00
9:15 pm 21:15 Clear 77 24.8 68 19.8 74 74 W 6 9 29.85 1011 10 16 0.00 0.00
9:35 pm 21:35 Clear 76 24.4 67 19.2 73 73 W 3 6 29.85 1011 10 16 0.00 0.00
9:55 pm 21:55 Clear 74 23.6 66 19 75 75 Calm 29.85 1011 10 16 0.00 0.00
10:15 pm 22:15 Clear 74 23.6 66 19.1 76 76 Calm 29.85 1011 10 16 0.00 0.00
10:35 pm 22:35 Clear 74 23.6 67 19.4 77 77 Calm 29.88 1012 10 16 0.00 0.00
10:55 pm 22:55 Clear 74 23.6 68 19.8 79 79 Calm 29.88 1012 10 16 0.00 0.00
11:15 pm 23:15 Clear 74 23.3 68 20.2 83 83 Calm 29.88 1012 10 16 0.00 0.00
11:35 pm 23:35 Clear 72 22.3 67 19.4 84 84 Calm 29.88 1012 10 16 0.00 0.00
11:55 pm 23:55 Hazy 71 21.5 66 18.8 85 85 Calm 29.88 1012 5 8 0.00 0.00

Powered by AerisWeather